TimeAKST,TemperatureF,Dew PointF,Humidity,Sea Level PressureIn,VisibilityMPH,Wind Direction,Wind SpeedMPH,Gust SpeedMPH,PrecipitationIn,Events,Conditions,WindDirDegrees,DateUTC
12:16 AM,24.8,14.0,64,29.53,10.0,NNW,10.4,-,N/A,,Overcast,340,2012-11-30 09:16:00
12:36 AM,24.8,14.0,64,29.52,10.0,NNW,13.8,-,N/A,,Overcast,330,2012-11-30 09:36:00
12:56 AM,24.8,14.0,64,29.53,10.0,NNW,9.2,-,N/A,,Overcast,340,2012-11-30 09:56:00
1:16 AM,24.8,14.0,64,29.53,10.0,NNW,9.2,-,N/A,,Overcast,340,2012-11-30 10:16:00
1:36 AM,24.8,14.0,64,29.52,10.0,NNW,10.4,-,N/A,,Overcast,330,2012-11-30 10:36:00
1:56 AM,24.8,12.2,59,29.52,10.0,NNW,9.2,-,N/A,,Overcast,330,2012-11-30 10:56:00
2:16 AM,24.8,14.0,64,29.52,10.0,NNW,8.1,-,N/A,,Overcast,340,2012-11-30 11:16:00
2:36 AM,24.8,14.0,64,29.52,10.0,NNW,8.1,-,N/A,,Overcast,340,2012-11-30 11:36:00
2:56 AM,26.6,12.2,55,29.52,10.0,North,6.9,-,N/A,,Overcast,350,2012-11-30 11:56:00
3:16 AM,26.6,12.2,55,29.52,10.0,NNW,4.6,-,N/A,,Overcast,330,2012-11-30 12:16:00
3:36 AM,26.6,12.2,55,29.51,10.0,North,6.9,-,N/A,,Overcast,350,2012-11-30 12:36:00
3:56 AM,26.6,12.2,55,29.51,10.0,NNW,6.9,-,N/A,,Overcast,330,2012-11-30 12:56:00
4:16 AM,26.6,10.4,51,29.50,10.0,NNW,6.9,-,N/A,,Overcast,330,2012-11-30 13:16:00
4:36 AM,24.8,12.2,59,29.50,10.0,NNW,9.2,-,N/A,,Overcast,330,2012-11-30 13:36:00
4:56 AM,26.6,12.2,55,29.51,10.0,North,5.8,-,N/A,,Overcast,360,2012-11-30 13:56:00
5:16 AM,26.6,10.4,51,29.50,10.0,North,6.9,-,N/A,,Overcast,350,2012-11-30 14:16:00
5:36 AM,26.6,10.4,51,29.50,10.0,North,8.1,-,N/A,,Overcast,360,2012-11-30 14:36:00
5:56 AM,26.6,8.6,47,29.50,10.0,NNW,5.8,-,N/A,,Overcast,340,2012-11-30 14:56:00
6:16 AM,26.6,10.4,51,29.50,10.0,NNW,8.1,-,N/A,,Overcast,340,2012-11-30 15:16:00
6:36 AM,24.8,8.6,50,29.50,10.0,NNW,6.9,-,N/A,,Mostly Cloudy,340,2012-11-30 15:36:00
6:56 AM,24.8,8.6,50,29.50,10.0,Calm,Calm,-,N/A,,Overcast,0,2012-11-30 15:56:00
7:16 AM,24.8,8.6,50,29.50,10.0,NNE,6.9,-,N/A,,Overcast,20,2012-11-30 16:16:00
7:36 AM,24.8,8.6,50,29.50,10.0,North,8.1,-,N/A,,Overcast,350,2012-11-30 16:36:00
7:56 AM,24.8,8.6,50,29.49,10.0,Calm,Calm,-,N/A,,Overcast,0,2012-11-30 16:56:00
8:16 AM,26.6,8.6,47,29.49,10.0,NNW,9.2,-,N/A,,Overcast,330,2012-11-30 17:16:00
8:36 AM,26.6,8.6,47,29.49,10.0,North,6.9,-,N/A,,Overcast,350,2012-11-30 17:36:00
8:56 AM,26.6,8.6,47,29.49,10.0,North,8.1,-,N/A,,Overcast,360,2012-11-30 17:56:00
9:16 AM,24.8,8.6,50,29.49,10.0,NNW,9.2,-,N/A,,Overcast,330,2012-11-30 18:16:00
9:36 AM,26.6,10.4,51,29.49,10.0,North,6.9,-,N/A,,Overcast,350,2012-11-30 18:36:00
9:56 AM,26.6,8.6,47,29.49,10.0,NNW,9.2,-,N/A,,Overcast,340,2012-11-30 18:56:00
10:16 AM,26.6,8.6,47,29.49,10.0,NNW,9.2,-,N/A,,Overcast,340,2012-11-30 19:16:00
10:36 AM,26.6,8.6,47,29.49,10.0,NNW,5.8,-,N/A,,Overcast,340,2012-11-30 19:36:00
10:56 AM,26.6,8.6,47,29.49,10.0,NNW,11.5,-,N/A,,Overcast,340,2012-11-30 19:56:00
11:16 AM,26.6,8.6,47,29.48,10.0,North,10.4,-,N/A,,Mostly Cloudy,360,2012-11-30 20:16:00
11:36 AM,24.8,6.8,46,29.47,10.0,North,8.1,-,N/A,,Partly Cloudy,350,2012-11-30 20:36:00
11:56 AM,24.8,6.8,46,29.47,10.0,North,9.2,16.1,N/A,,Clear,350,2012-11-30 20:56:00
12:16 PM,24.8,6.8,46,29.47,10.0,North,9.2,-,N/A,,Clear,360,2012-11-30 21:16:00
12:36 PM,26.6,6.8,43,29.46,10.0,NNW,10.4,-,N/A,,Clear,340,2012-11-30 21:36:00
12:56 PM,26.6,6.8,43,29.46,10.0,North,9.2,-,N/A,,Clear,350,2012-11-30 21:56:00
1:16 PM,26.6,6.8,43,29.45,10.0,North,3.5,-,N/A,,Clear,360,2012-11-30 22:16:00
1:36 PM,26.6,6.8,43,29.45,10.0,North,8.1,-,N/A,,Scattered Clouds,360,2012-11-30 22:36:00
1:56 PM,26.6,6.8,43,29.44,10.0,North,11.5,-,N/A,,Mostly Cloudy,350,2012-11-30 22:56:00
2:16 PM,26.6,6.8,43,29.44,10.0,North,9.2,-,N/A,,Partly Cloudy,350,2012-11-30 23:16:00
2:36 PM,26.6,6.8,43,29.44,10.0,North,10.4,-,N/A,,Mostly Cloudy,350,2012-11-30 23:36:00
2:56 PM,24.8,6.8,46,29.44,10.0,NNW,12.7,-,N/A,,Mostly Cloudy,340,2012-11-30 23:56:00
3:16 PM,24.8,5.0,43,29.43,10.0,NW,9.2,-,N/A,,Partly Cloudy,320,2012-12-01 00:16:00
3:36 PM,24.8,5.0,43,29.44,10.0,North,5.8,-,N/A,,Clear,350,2012-12-01 00:36:00
3:56 PM,24.8,5.0,43,29.44,10.0,North,6.9,-,N/A,,Clear,350,2012-12-01 00:56:00
4:16 PM,23.0,3.2,43,29.44,10.0,NNW,5.8,-,N/A,,Clear,340,2012-12-01 01:16:00
4:36 PM,23.0,5.0,46,29.43,10.0,NNW,9.2,-,N/A,,Clear,340,2012-12-01 01:36:00
4:56 PM,21.2,3.2,46,29.43,10.0,North,8.1,-,N/A,,Clear,350,2012-12-01 01:56:00
5:16 PM,23.0,3.2,43,29.44,10.0,North,6.9,-,N/A,,Clear,350,2012-12-01 02:16:00
5:36 PM,21.2,3.2,46,29.43,10.0,North,3.5,-,N/A,,Clear,10,2012-12-01 02:36:00
5:56 PM,21.2,3.2,46,29.43,10.0,NNW,4.6,-,N/A,,Clear,340,2012-12-01 02:56:00
6:16 PM,21.2,3.2,46,29.43,10.0,NNW,8.1,-,N/A,,Clear,330,2012-12-01 03:16:00
6:36 PM,19.4,5.0,54,29.44,10.0,NNW,4.6,-,N/A,,Clear,340,2012-12-01 03:36:00
6:56 PM,21.2,3.2,46,29.44,10.0,Calm,Calm,-,N/A,,Clear,0,2012-12-01 03:56:00
7:16 PM,19.4,3.2,49,29.44,10.0,North,3.5,-,N/A,,Clear,350,2012-12-01 04:16:00
7:36 PM,17.6,1.4,49,29.44,10.0,Calm,Calm,-,N/A,,Clear,0,2012-12-01 04:36:00
7:56 PM,19.4,6.8,58,29.44,10.0,NW,3.5,-,N/A,,Clear,320,2012-12-01 04:56:00
8:16 PM,17.6,1.4,49,29.44,10.0,Calm,Calm,-,N/A,,Clear,0,2012-12-01 05:16:00
8:36 PM,19.4,3.2,49,29.43,10.0,NNW,6.9,-,N/A,,Clear,340,2012-12-01 05:36:00
8:56 PM,21.2,3.2,46,29.43,10.0,North,4.6,-,N/A,,Clear,350,2012-12-01 05:56:00
9:16 PM,19.4,1.4,46,29.44,10.0,NNW,5.8,-,N/A,,Clear,340,2012-12-01 06:16:00
9:36 PM,19.4,1.4,46,29.44,10.0,Calm,Calm,-,N/A,,Clear,0,2012-12-01 06:36:00
9:56 PM,19.4,3.2,49,29.44,10.0,NNW,5.8,-,N/A,,Clear,330,2012-12-01 06:56:00
10:16 PM,19.4,3.2,49,29.44,10.0,NNE,3.5,-,N/A,,Clear,20,2012-12-01 07:16:00
10:36 PM,19.4,1.4,46,29.44,10.0,Calm,Calm,-,N/A,,Clear,0,2012-12-01 07:36:00
10:56 PM,19.4,3.2,49,29.44,10.0,NNW,4.6,-,N/A,,Clear,330,2012-12-01 07:56:00
11:16 PM,17.6,3.2,53,29.44,10.0,Calm,Calm,-,N/A,,Clear,0,2012-12-01 08:16:00
11:36 PM,19.4,1.4,46,29.44,10.0,Calm,Calm,-,N/A,,Clear,0,2012-12-01 08:36:00
11:56 PM,19.4,1.4,46,29.45,10.0,NNW,5.8,-,N/A,,Clear,340,2012-12-01 08:56:00